Location: Spaichingen
(48.0400°N, 8.4300°E)
Time: 23:56:23
(UTC+02:00)

X-37B - Visible Passes

Search period start: 20 September 2020 00:00
Search period end: 30 September 2020 00:00
Orbit: 386 x 387 km, 45.0° (Epoch: 18 September)

Date Brightness Start Highest point End Pass type
(mag) Time Alt. Az. Time Alt. Az. Time Alt. Az.
20 Sep 1.8 05:05:33 36° SE 05:05:33 36° SE 05:07:45 10° ESE visible
21 Sep 1.2 05:42:02 35° SW 05:42:32 37° SSW 05:45:30 10° ESE visible
22 Sep 3.2 04:46:20 16° ESE 04:46:20 16° ESE 04:47:06 10° ESE visible
22 Sep 2.2 06:18:37 14° WSW 06:20:15 21° SSW 06:22:42 10° SSE visible
23 Sep 2.4 05:23:00 22° SSE 05:23:00 22° SSE 05:24:39 10° SE visible
24 Sep 2.7 05:59:50 14° SSW 05:59:50 14° SSW 06:01:12 10° S visible
